Location: Eaton
(41.3139°N, 82.0207°W)
Time: 12:49:27
(UTC+00:00)

Resurs 1-4 Rocket - Pass Details

Date: 17 June 2021
Orbit: 800 x 813 km, 98.6° (Epoch: 30 July)

Event Time Altitude Azimuth Distance (km) Brightness Sun altitude
Rises 05:53:14 0° 29° (NNE) 3,340 6.4 -25.1°
Reaches altitude 10° 05:56:12 10° 46° (NE) 2,405 5.2 -25.0°
Maximum altitude 06:00:05 20° 93° (E) 1,789 3.9 -24.9°
Enters shadow 06:01:20 19° 111° (ESE) 1,862 3.8 -24.9°
